2021/06/05 23:39:46+0000,-43.29,-46.59,-31.48,-51.38,-54.22,-55.87
2021/06/05 23:40:38+0000,-43.24,-46.84,-31.99,-50.96,-55.55,-55.94
2021/06/05 23:41:48+0000,-42.00,-45.91,-32.01,-50.26,-53.52,-55.66
2021/06/05 23:42:40+0000,-42.40,-47.12,-31.70,-50.44,-54.89,-56.04
2021/06/05 23:43:32+0000,-42.53,-45.25,-31.51,-50.61,-54.93,-55.62
2021/06/05 23:44:24+0000,-42.01,-45.91,-31.06,-50.95,-54.89,-55.84
2021/06/05 23:45:16+0000,-41.16,-47.22,-31.46,-50.60,-54.73,-55.66
2021/06/05 23:46:08+0000,-42.42,-47.65,-31.69,-51.05,-55.14,-55.81
2021/06/05 23:47:00+0000,-43.64,-45.40,-31.71,-51.63,-55.45,-55.91
2021/06/05 23:47:52+0000,-43.06,-47.25,-31.89,-51.73,-55.56,-55.44
2021/06/05 23:48:44+0000,-42.79,-46.07,-31.24,-51.63,-55.46,-55.99
2021/06/05 23:49:36+0000,-42.77,-46.46,-31.92,-51.55,-55.40,-55.62
2021/06/05 23:50:28+0000,-42.61,-45.32,-31.44,-50.74,-54.86,-55.73
2021/06/05 23:51:27+0000,-42.92,-45.02,-31.41,-51.66,-55.27,-55.72
2021/06/05 23:52:20+0000,-42.62,-45.47,-31.43,-52.00,-54.90,-56.24
2021/06/05 23:53:12+0000,-42.18,-45.86,-31.47,-51.87,-55.37,-55.59
2021/06/05 23:54:04+0000,-43.31,-46.46,-31.51,-50.83,-55.25,-55.61
2021/06/05 23:54:56+0000,-42.48,-46.53,-32.61,-50.98,-55.97,-55.54
2021/06/05 23:55:48+0000,-42.63,-46.17,-31.85,-52.03,-54.88,-55.77
2021/06/05 23:56:40+0000,-43.44,-46.31,-31.99,-46.67,-55.00,-55.86
2021/06/05 23:57:32+0000,-42.59,-45.52,-31.83,-51.71,-55.13,-55.28
2021/06/05 23:58:24+0000,-42.19,-46.01,-31.07,-46.78,-55.03,-55.77
2021/06/05 23:59:16+0000,-42.71,-46.32,-31.14,-52.41,-55.13,-55.78
2021/06/06 00:00:08+0000,-42.22,-45.21,-30.76,-48.76,-55.08,-55.43
2021/06/06 00:01:11+0000,-41.90,-46.11,-31.49,-47.45,-54.98,-55.79
2021/06/06 00:02:03+0000,-42.77,-45.89,-30.58,-48.17,-55.55,-55.60
2021/06/06 00:02:55+0000,-42.79,-45.64,-30.94,-52.76,-55.75,-55.68
2021/06/06 00:03:47+0000,-42.83,-46.21,-30.43,-53.28,-55.88,-55.01
2021/06/06 00:04:39+0000,-43.09,-45.19,-31.09,-47.02,-55.60,-55.88
2021/06/06 00:05:31+0000,-42.15,-45.61,-31.28,-46.99,-55.11,-55.82
2021/06/06 00:06:23+0000,-42.35,-44.24,-31.35,-47.72,-55.70,-56.00
2021/06/06 00:07:16+0000,-42.00,-45.75,-30.91,-47.74,-55.51,-55.12
2021/06/06 00:08:08+0000,-41.99,-45.72,-31.56,-49.84,-55.47,-55.34
2021/06/06 00:09:00+0000,-42.24,-45.06,-31.51,-51.80,-55.58,-56.29
2021/06/06 00:09:52+0000,-42.12,-45.09,-31.83,-52.51,-55.17,-56.02
2021/06/06 00:10:44+0000,-41.49,-45.41,-31.33,-47.36,-55.69,-55.67
2021/06/06 00:11:44+0000,-41.61,-45.40,-31.36,-47.36,-55.50,-55.49
2021/06/06 00:12:36+0000,-41.17,-45.83,-31.56,-46.87,-55.32,-55.85
2021/06/06 00:13:28+0000,-42.53,-45.23,-31.88,-47.50,-55.79,-55.78
2021/06/06 00:14:20+0000,-42.71,-45.15,-31.64,-53.20,-55.31,-56.43
2021/06/06 00:15:12+0000,-42.19,-45.63,-31.61,-46.70,-55.23,-56.02
2021/06/06 00:16:04+0000,-42.55,-45.92,-30.79,-52.92,-55.77,-55.95
2021/06/06 00:16:56+0000,-42.63,-43.71,-31.06,-51.69,-55.76,-56.26
2021/06/06 00:17:48+0000,-42.23,-45.44,-31.66,-53.46,-55.48,-56.21
2021/06/06 00:18:40+0000,-42.41,-45.03,-31.15,-50.55,-55.48,-56.17
2021/06/06 00:19:32+0000,-42.54,-46.79,-31.45,-52.89,-55.69,-55.81
2021/06/06 00:20:25+0000,-41.34,-45.92,-31.15,-52.77,-55.96,-55.73
2021/06/06 00:21:24+0000,-42.58,-45.35,-31.00,-51.36,-56.02,-55.81
2021/06/06 00:22:16+0000,-42.14,-44.93,-31.16,-51.20,-55.90,-56.13
2021/06/06 00:23:08+0000,-42.09,-46.48,-31.26,-50.80,-55.93,-55.34
2021/06/06 00:24:00+0000,-42.58,-46.05,-31.43,-51.70,-55.22,-55.85
2021/06/06 00:24:52+0000,-41.97,-45.92,-31.39,-52.00,-55.18,-56.17
2021/06/06 00:25:44+0000,-42.50,-46.64,-30.97,-51.27,-55.06,-55.99
2021/06/06 00:26:36+0000,-42.00,-45.36,-31.09,-51.68,-55.31,-56.40
2021/06/06 00:27:28+0000,-42.16,-45.36,-31.26,-51.20,-55.54,-55.41
2021/06/06 00:28:20+0000,-43.05,-45.45,-31.46,-48.96,-55.73,-55.86
2021/06/06 00:29:12+0000,-42.44,-45.71,-31.31,-51.73,-56.02,-56.45
2021/06/06 00:30:04+0000,-42.98,-45.42,-30.96,-51.99,-55.77,-55.82
2021/06/06 00:31:04+0000,-43.43,-44.73,-31.54,-52.90,-55.71,-56.46
2021/06/06 00:31:57+0000,-43.38,-46.38,-31.37,-51.66,-54.74,-55.97
2021/06/06 00:32:49+0000,-42.52,-46.12,-31.78,-52.45,-55.68,-56.29
2021/06/06 00:33:41+0000,-42.30,-45.50,-32.48,-51.26,-55.88,-56.27
2021/06/06 00:34:33+0000,-42.45,-45.51,-32.24,-51.72,-55.31,-56.07
2021/06/06 00:35:25+0000,-43.59,-47.02,-31.71,-51.03,-55.09,-56.22
2021/06/06 00:36:17+0000,-43.30,-46.96,-32.32,-51.05,-54.93,-56.03
2021/06/06 00:37:09+0000,-42.67,-45.29,-32.42,-51.75,-54.76,-56.02
2021/06/06 00:38:01+0000,-42.69,-45.88,-32.24,-51.46,-54.92,-56.28
2021/06/06 00:38:53+0000,-42.43,-46.33,-31.89,-51.06,-55.80,-55.80
2021/06/06 00:39:45+0000,-41.66,-46.29,-31.81,-52.03,-55.99,-55.93
2021/06/06 00:40:37+0000,-42.02,-44.82,-31.73,-51.56,-55.34,-55.64
2021/06/06 00:41:37+0000,-42.38,-46.59,-31.88,-50.95,-55.60,-56.83
2021/06/06 00:42:29+0000,-40.85,-48.40,-32.04,-52.20,-55.16,-56.14
2021/06/06 00:43:21+0000,-41.38,-48.76,-32.05,-51.55,-55.07,-56.35
2021/06/06 00:44:13+0000,-41.71,-49.02,-32.25,-51.14,-54.90,-56.67
2021/06/06 00:45:05+0000,-40.35,-49.16,-31.87,-52.36,-55.54,-56.50
2021/06/06 00:45:57+0000,-40.17,-48.97,-31.53,-51.86,-55.56,-56.39
2021/06/06 00:46:49+0000,-40.65,-49.18,-31.79,-53.24,-54.43,-56.23
2021/06/06 00:47:41+0000,-41.24,-48.65,-32.15,-48.85,-55.92,-56.88
2021/06/06 00:48:33+0000,-41.71,-48.93,-31.85,-51.73,-55.62,-56.31
2021/06/06 00:49:25+0000,-40.84,-49.00,-32.30,-51.48,-55.99,-55.74
2021/06/06 00:50:18+0000,-41.77,-48.88,-31.92,-50.57,-55.25,-56.99
2021/06/06 00:51:18+0000,-42.21,-48.56,-32.07,-50.02,-54.92,-56.53
2021/06/06 00:52:10+0000,-40.99,-48.97,-32.28,-50.26,-54.96,-55.91
2021/06/06 00:53:02+0000,-40.75,-48.76,-31.73,-51.28,-55.42,-56.53
2021/06/06 00:53:54+0000,-41.79,-49.18,-32.93,-51.41,-55.92,-56.63
2021/06/06 00:54:46+0000,-41.77,-49.44,-32.36,-50.88,-55.34,-56.96
2021/06/06 00:55:38+0000,-41.48,-49.34,-33.08,-51.43,-55.74,-56.14
2021/06/06 00:56:30+0000,-42.51,-49.80,-32.36,-51.16,-55.82,-56.40
2021/06/06 00:57:22+0000,-42.31,-49.47,-31.85,-51.18,-55.32,-56.17
2021/06/06 00:58:14+0000,-41.22,-49.73,-31.81,-50.18,-55.20,-55.83
2021/06/06 00:59:06+0000,-41.69,-49.70,-31.63,-51.11,-55.24,-56.48
2021/06/06 00:59:58+0000,-40.42,-49.22,-32.06,-50.30,-55.50,-56.35
2021/06/06 01:00:50+0000,-40.80,-49.30,-31.71,-52.21,-54.70,-56.47
2021/06/06 01:01:51+0000,-39.12,-48.94,-31.75,-50.69,-54.67,-56.31
2021/06/06 01:02:43+0000,-40.40,-49.12,-31.68,-50.66,-54.64,-56.67
2021/06/06 01:03:35+0000,-40.64,-49.54,-32.28,-50.82,-55.58,-56.42
2021/06/06 01:04:27+0000,-40.42,-49.34,-32.25,-50.40,-56.08,-56.24
2021/06/06 01:05:19+0000,-40.81,-49.41,-31.96,-51.96,-55.59,-56.42
2021/06/06 01:06:11+0000,-40.73,-49.10,-32.51,-51.01,-54.56,-56.20
2021/06/06 01:07:03+0000,-39.43,-49.24,-31.94,-51.90,-55.28,-56.30
2021/06/06 01:07:55+0000,-40.29,-49.11,-32.39,-50.99,-55.51,-56.54
2021/06/06 01:08:47+0000,-39.54,-49.29,-32.19,-52.51,-54.60,-56.31
2021/06/06 01:09:39+0000,-39.56,-49.27,-32.23,-51.30,-55.36,-56.36
2021/06/06 01:10:32+0000,-39.57,-49.40,-31.77,-48.78,-55.86,-56.23
2021/06/06 01:11:32+0000,-41.23,-49.12,-32.19,-49.63,-55.18,-56.22
2021/06/06 01:12:24+0000,-39.98,-49.29,-32.03,-51.02,-55.77,-56.24
2021/06/06 01:13:16+0000,-40.38,-49.23,-32.33,-49.15,-55.21,-56.33
2021/06/06 01:14:08+0000,-41.14,-49.21,-32.06,-51.31,-55.93,-55.45
2021/06/06 01:15:00+0000,-41.06,-49.81,-32.41,-51.19,-55.44,-56.12
2021/06/06 01:15:52+0000,-41.22,-48.86,-32.30,-51.09,-54.63,-56.03
2021/06/06 01:16:44+0000,-41.09,-50.00,-32.15,-49.17,-54.93,-57.01
2021/06/06 01:17:36+0000,-40.58,-49.46,-32.33,-50.05,-54.58,-55.87
2021/06/06 01:18:28+0000,-40.96,-49.49,-32.50,-50.91,-54.53,-56.34
2021/06/06 01:19:20+0000,-39.54,-48.61,-31.71,-49.86,-55.20,-56.30
2021/06/06 01:20:12+0000,-41.63,-48.99,-31.93,-50.87,-55.87,-56.69
2021/06/06 01:21:13+0000,-41.39,-46.76,-32.13,-50.81,-55.96,-56.50
2021/06/06 01:22:05+0000,-42.18,-48.01,-32.03,-51.58,-55.42,-56.63
2021/06/06 01:22:57+0000,-40.97,-49.43,-32.32,-50.56,-55.56,-56.36
2021/06/06 01:23:49+0000,-38.71,-45.91,-32.32,-51.98,-56.17,-56.80
2021/06/06 01:24:41+0000,-41.48,-49.06,-32.17,-50.57,-55.24,-56.06
2021/06/06 01:25:33+0000,-41.24,-49.90,-31.95,-51.13,-55.52,-56.04
2021/06/06 01:26:25+0000,-39.65,-46.98,-32.18,-49.74,-55.78,-56.74
2021/06/06 01:27:17+0000,-39.83,-49.16,-32.01,-49.55,-56.04,-56.78
2021/06/06 01:28:09+0000,-40.13,-49.46,-32.28,-50.26,-54.94,-56.54
2021/06/06 01:29:01+0000,-39.56,-46.78,-31.90,-49.97,-55.50,-56.63
2021/06/06 01:29:54+0000,-39.28,-49.08,-32.02,-50.57,-55.50,-56.33
2021/06/06 01:30:46+0000,-39.62,-49.28,-32.37,-50.27,-54.81,-56.36
2021/06/06 01:31:47+0000,-38.89,-48.64,-32.37,-49.07,-55.90,-56.28
2021/06/06 01:32:39+0000,-39.87,-48.53,-31.97,-50.33,-55.06,-56.09
2021/06/06 01:33:31+0000,-39.08,-48.60,-32.31,-49.74,-55.93,-56.11
2021/06/06 01:34:23+0000,-39.87,-48.69,-32.16,-49.87,-55.12,-55.74
2021/06/06 01:35:15+0000,-39.31,-48.67,-31.97,-49.76,-55.03,-56.13
2021/06/06 01:36:07+0000,-39.99,-49.02,-32.28,-49.82,-55.17,-56.13
2021/06/06 01:36:59+0000,-39.92,-48.62,-32.38,-50.28,-55.06,-55.91
2021/06/06 01:37:51+0000,-38.77,-48.71,-32.36,-51.72,-54.65,-56.53
2021/06/06 01:38:43+0000,-39.84,-48.76,-32.42,-50.31,-55.08,-55.87
2021/06/06 01:39:35+0000,-39.48,-48.63,-32.41,-51.72,-54.54,-56.08
2021/06/06 01:40:27+0000,-38.45,-49.08,-32.24,-50.37,-54.79,-56.58
2021/06/06 01:41:27+0000,-40.06,-48.22,-31.85,-50.52,-54.97,-55.78
2021/06/06 01:42:19+0000,-39.66,-49.64,-32.60,-51.53,-53.96,-56.32
2021/06/06 01:43:11+0000,-39.70,-49.20,-32.15,-50.78,-55.24,-56.28
2021/06/06 01:44:03+0000,-39.01,-48.41,-32.57,-51.40,-54.37,-56.96
2021/06/06 01:44:55+0000,-40.04,-48.26,-32.55,-50.61,-54.56,-56.52
2021/06/06 01:45:47+0000,-39.64,-48.64,-32.49,-50.22,-55.20,-56.00
2021/06/06 01:46:39+0000,-38.18,-47.87,-31.66,-50.35,-54.73,-55.73
2021/06/06 01:47:32+0000,-39.35,-48.15,-32.10,-50.76,-55.21,-55.92
2021/06/06 01:48:24+0000,-39.37,-48.00,-32.63,-50.16,-54.49,-55.70
2021/06/06 01:49:16+0000,-37.81,-48.48,-32.18,-51.21,-54.47,-56.64
2021/06/06 01:50:08+0000,-40.13,-48.71,-32.24,-49.39,-55.14,-56.29
2021/06/06 01:51:08+0000,-41.23,-49.07,-32.35,-51.12,-54.14,-55.95
2021/06/06 01:52:00+0000,-40.81,-48.13,-32.57,-50.14,-54.90,-56.66
2021/06/06 01:52:52+0000,-41.40,-47.95,-32.67,-51.58,-54.49,-55.73
2021/06/06 01:53:44+0000,-40.99,-45.37,-32.87,-50.40,-54.36,-56.22
2021/06/06 01:54:36+0000,-41.64,-45.81,-32.30,-51.34,-54.28,-56.20
2021/06/06 01:55:28+0000,-40.47,-45.99,-32.09,-50.94,-54.74,-56.01
2021/06/06 01:56:20+0000,-40.22,-45.01,-32.49,-51.56,-54.28,-56.17
2021/06/06 01:57:12+0000,-40.32,-45.57,-32.34,-49.47,-54.52,-56.16
2021/06/06 01:58:04+0000,-39.54,-46.16,-31.98,-51.33,-54.58,-56.58
2021/06/06 01:58:56+0000,-40.57,-45.16,-31.96,-49.74,-54.95,-55.63
2021/06/06 01:59:48+0000,-40.44,-45.08,-33.00,-50.86,-54.27,-56.00
2021/06/06 02:00:40+0000,-39.87,-46.43,-32.64,-50.64,-55.15,-56.23
2021/06/06 02:01:43+0000,-40.63,-46.85,-32.57,-49.61,-55.10,-55.76
2021/06/06 02:02:35+0000,-40.62,-45.55,-32.58,-50.62,-54.36,-56.20
2021/06/06 02:03:27+0000,-40.24,-45.47,-32.40,-50.52,-54.43,-56.04
2021/06/06 02:04:19+0000,-40.66,-44.28,-31.93,-51.36,-55.37,-56.10
2021/06/06 02:05:11+0000,-39.21,-46.22,-32.34,-49.80,-54.86,-56.36
2021/06/06 02:06:03+0000,-40.94,-45.71,-32.37,-51.72,-55.21,-55.98
2021/06/06 02:06:55+0000,-42.04,-44.74,-32.43,-49.97,-54.22,-55.82
2021/06/06 02:07:47+0000,-40.62,-45.57,-31.90,-50.29,-54.81,-56.12
2021/06/06 02:08:39+0000,-41.26,-44.59,-32.24,-50.24,-54.40,-56.19
2021/06/06 02:09:31+0000,-39.87,-45.93,-32.12,-51.14,-54.84,-55.77
2021/06/06 02:10:23+0000,-41.17,-45.53,-32.09,-51.44,-54.74,-55.77
2021/06/06 02:11:23+0000,-40.78,-46.53,-32.20,-50.45,-55.07,-56.47
2021/06/06 02:12:15+0000,-39.89,-45.47,-32.51,-50.26,-54.22,-56.15
2021/06/06 02:13:07+0000,-40.61,-46.29,-31.60,-50.78,-54.93,-55.86
2021/06/06 02:13:59+0000,-39.83,-45.88,-31.80,-49.02,-54.53,-55.66
2021/06/06 02:14:51+0000,-40.14,-46.29,-32.39,-50.54,-53.96,-56.39
2021/06/06 02:15:43+0000,-38.71,-46.05,-32.29,-50.31,-54.88,-56.01
2021/06/06 02:16:35+0000,-39.66,-48.37,-31.70,-50.43,-55.04,-55.96
2021/06/06 02:17:27+0000,-41.19,-47.49,-32.05,-50.37,-54.28,-55.91
2021/06/06 02:18:19+0000,-39.93,-47.76,-31.64,-52.10,-53.85,-55.84
2021/06/06 02:19:11+0000,-39.53,-48.16,-32.27,-49.69,-54.94,-55.93
2021/06/06 02:20:04+0000,-38.72,-48.24,-31.95,-52.05,-54.68,-56.88
2021/06/06 02:21:04+0000,-41.21,-47.38,-31.82,-51.98,-54.81,-56.24
2021/06/06 02:21:56+0000,-39.28,-48.67,-32.71,-50.32,-54.87,-56.56
2021/06/06 02:22:48+0000,-41.31,-48.32,-32.43,-51.34,-54.79,-55.75
2021/06/06 02:23:40+0000,-39.51,-45.88,-32.02,-49.37,-55.15,-55.62
2021/06/06 02:24:32+0000,-40.41,-45.30,-32.53,-50.55,-54.39,-56.34
2021/06/06 02:25:24+0000,-38.18,-44.85,-32.38,-50.93,-54.35,-55.89
2021/06/06 02:26:16+0000,-41.30,-44.93,-32.70,-50.28,-54.74,-56.24
2021/06/06 02:27:08+0000,-39.25,-46.42,-32.54,-50.89,-55.41,-56.15
2021/06/06 02:28:00+0000,-40.67,-45.88,-31.76,-50.53,-54.67,-56.41
2021/06/06 02:28:52+0000,-40.93,-45.87,-32.21,-50.82,-54.96,-56.10
2021/06/06 02:29:44+0000,-40.45,-46.15,-32.18,-50.34,-54.49,-56.46
2021/06/06 02:30:36+0000,-38.46,-44.57,-31.93,-50.28,-55.37,-56.40
2021/06/06 02:31:36+0000,-41.00,-46.25,-32.25,-50.74,-54.59,-55.99
2021/06/06 02:32:28+0000,-39.02,-44.75,-32.67,-50.61,-53.90,-56.07
2021/06/06 02:33:20+0000,-40.66,-45.89,-31.79,-51.91,-54.70,-56.38
2021/06/06 02:34:12+0000,-40.77,-46.61,-32.32,-51.55,-54.85,-55.45
2021/06/06 02:35:04+0000,-40.55,-45.54,-32.25,-51.64,-54.75,-55.78
2021/06/06 02:35:56+0000,-40.58,-47.18,-32.65,-50.99,-55.21,-56.17
2021/06/06 02:36:48+0000,-39.33,-46.02,-32.14,-51.64,-55.42,-56.02
2021/06/06 02:37:41+0000,-39.17,-45.61,-32.30,-49.47,-55.57,-56.43
2021/06/06 02:38:33+0000,-40.39,-46.34,-32.48,-51.04,-55.02,-55.96
2021/06/06 02:39:25+0000,-41.17,-45.79,-32.20,-50.58,-55.38,-55.90
2021/06/06 02:40:17+0000,-39.57,-45.09,-32.11,-50.14,-55.21,-56.40
2021/06/06 02:41:17+0000,-38.53,-45.12,-31.56,-50.82,-55.03,-56.95
2021/06/06 02:42:09+0000,-38.03,-47.28,-32.32,-50.31,-54.24,-56.09
2021/06/06 02:43:01+0000,-39.51,-48.76,-32.31,-49.67,-54.55,-56.05
2021/06/06 02:43:53+0000,-40.96,-48.22,-32.04,-50.05,-54.03,-56.03
2021/06/06 02:44:45+0000,-41.52,-47.43,-32.08,-48.33,-55.53,-56.38
2021/06/06 02:45:37+0000,-40.69,-48.66,-32.64,-50.25,-54.80,-56.37
2021/06/06 02:46:29+0000,-40.35,-48.64,-32.06,-50.33,-54.24,-56.32
2021/06/06 02:47:21+0000,-42.04,-49.52,-32.43,-50.73,-54.46,-56.25
2021/06/06 02:48:13+0000,-39.76,-47.29,-32.17,-50.93,-54.55,-56.22
2021/06/06 02:49:05+0000,-40.35,-47.78,-31.95,-50.70,-54.64,-56.41
2021/06/06 02:49:58+0000,-39.99,-48.41,-32.40,-50.69,-53.16,-56.00
2021/06/06 02:50:50+0000,-39.86,-48.40,-32.67,-51.80,-55.16,-56.10
2021/06/06 02:51:50+0000,-39.68,-47.11,-33.10,-51.80,-55.16,-56.17
2021/06/06 02:52:42+0000,-40.85,-47.68,-32.39,-48.86,-54.77,-56.34
2021/06/06 02:53:34+0000,-41.31,-47.28,-32.42,-50.43,-54.78,-55.72
2021/06/06 02:54:26+0000,-40.37,-47.78,-33.26,-50.65,-54.63,-55.87
2021/06/06 02:55:18+0000,-40.25,-48.37,-32.36,-50.08,-54.80,-56.34
2021/06/06 02:56:10+0000,-40.56,-47.13,-32.62,-49.53,-54.60,-55.86
2021/06/06 02:57:02+0000,-40.78,-46.63,-32.50,-50.42,-55.07,-55.90
2021/06/06 02:57:54+0000,-41.08,-47.02,-32.09,-49.90,-54.35,-55.97
2021/06/06 02:58:46+0000,-40.12,-47.43,-32.43,-50.46,-54.63,-56.05
2021/06/06 02:59:38+0000,-41.39,-47.08,-32.23,-49.66,-54.83,-56.47
2021/06/06 03:00:31+0000,-40.48,-47.33,-32.13,-49.81,-53.55,-56.11
2021/06/06 03:01:32+0000,-40.56,-47.75,-32.44,-51.21,-53.98,-56.02
2021/06/06 03:02:24+0000,-40.16,-46.67,-32.63,-49.92,-54.42,-56.10
2021/06/06 03:03:16+0000,-41.40,-46.89,-32.16,-49.85,-54.49,-55.85
2021/06/06 03:04:08+0000,-40.62,-48.43,-32.31,-51.03,-53.99,-55.71
2021/06/06 03:05:00+0000,-41.84,-47.37,-32.82,-48.37,-54.69,-55.91
2021/06/06 03:05:52+0000,-40.92,-47.71,-32.37,-47.83,-54.77,-56.62
2021/06/06 03:06:44+0000,-41.01,-48.07,-32.95,-50.54,-54.54,-56.32
2021/06/06 03:07:36+0000,-40.83,-49.32,-32.75,-51.11,-53.26,-56.23
2021/06/06 03:08:28+0000,-40.15,-47.30,-33.03,-50.68,-54.11,-55.91
2021/06/06 03:09:20+0000,-40.58,-47.41,-32.08,-50.53,-54.16,-56.45
2021/06/06 03:10:12+0000,-40.75,-47.27,-32.54,-49.77,-54.52,-56.12
2021/06/06 03:11:13+0000,-40.58,-46.40,-32.69,-49.88,-54.00,-56.59
2021/06/06 03:12:05+0000,-39.62,-48.04,-33.21,-50.29,-52.96,-56.45
2021/06/06 03:12:57+0000,-39.46,-46.92,-33.38,-51.35,-53.62,-56.38
2021/06/06 03:13:49+0000,-41.12,-46.73,-32.57,-51.24,-54.27,-56.46
2021/06/06 03:14:41+0000,-40.85,-46.17,-32.77,-50.06,-54.78,-56.14
2021/06/06 03:15:33+0000,-40.67,-47.12,-33.06,-50.19,-54.35,-56.11
2021/06/06 03:16:25+0000,-41.72,-45.86,-32.39,-50.16,-54.85,-56.49
2021/06/06 03:17:17+0000,-41.44,-46.66,-32.43,-49.77,-55.25,-55.90
2021/06/06 03:18:09+0000,-41.44,-46.01,-32.15,-49.61,-54.49,-55.67
2021/06/06 03:19:01+0000,-39.91,-45.43,-32.07,-49.66,-53.65,-55.34
2021/06/06 03:19:53+0000,-40.96,-46.71,-32.58,-49.69,-54.04,-55.74
2021/06/06 03:20:45+0000,-40.70,-46.86,-32.26,-49.67,-54.28,-56.42
2021/06/06 03:21:46+0000,-40.83,-46.63,-32.13,-49.50,-54.49,-56.51
2021/06/06 03:22:38+0000,-39.84,-43.71,-31.58,-49.97,-54.24,-56.03
2021/06/06 03:23:30+0000,-40.74,-45.32,-33.16,-50.08,-53.40,-56.10
2021/06/06 03:24:22+0000,-40.53,-45.70,-34.01,-49.84,-54.36,-56.03
2021/06/06 03:25:14+0000,-41.29,-44.43,-31.57,-50.31,-53.40,-56.11
2021/06/06 03:26:06+0000,-39.96,-43.60,-31.96,-49.04,-54.77,-55.01
2021/06/06 03:26:58+0000,-40.74,-44.92,-32.15,-49.94,-52.80,-54.73
2021/06/06 03:27:50+0000,-40.10,-42.84,-31.43,-50.67,-55.44,-56.38
2021/06/06 03:28:42+0000,-38.23,-43.78,-31.98,-49.80,-55.51,-56.20
2021/06/06 03:29:34+0000,-39.80,-43.23,-32.18,-51.29,-54.75,-55.20
2021/06/06 03:30:27+0000,-40.45,-43.74,-32.05,-45.28,-55.55,-54.89
2021/06/06 03:31:27+0000,-39.37,-44.88,-32.20,-47.95,-55.28,-55.84
2021/06/06 03:32:19+0000,-39.70,-43.16,-31.52,-52.17,-54.05,-56.62
2021/06/06 03:33:11+0000,-40.44,-42.29,-31.04,-51.51,-56.07,-56.24
2021/06/06 03:34:03+0000,-40.68,-43.41,-31.28,-52.05,-55.00,-56.20
2021/06/06 03:34:55+0000,-39.30,-43.76,-31.65,-50.97,-55.49,-54.89
2021/06/06 03:35:47+0000,-39.89,-43.56,-31.49,-51.56,-54.71,-54.66
2021/06/06 03:36:39+0000,-38.49,-42.86,-31.48,-50.89,-53.15,-54.85
2021/06/06 03:37:31+0000,-39.91,-43.15,-31.18,-49.45,-53.06,-54.45
2021/06/06 03:38:23+0000,-40.00,-43.34,-30.76,-49.69,-53.60,-53.88
2021/06/06 03:39:16+0000,-40.84,-43.68,-30.61,-51.08,-54.58,-54.54
2021/06/06 03:40:08+0000,-40.50,-44.64,-30.69,-51.10,-54.40,-55.39
2021/06/06 03:41:08+0000,-40.27,-44.25,-30.53,-50.47,-54.97,-54.92
2021/06/06 03:42:00+0000,-40.99,-43.11,-30.21,-50.82,-54.99,-55.44
2021/06/06 03:42:52+0000,-40.17,-45.41,-30.96,-50.77,-54.53,-54.33
2021/06/06 03:43:44+0000,-39.57,-42.78,-31.04,-51.22,-54.02,-54.85
2021/06/06 03:44:36+0000,-40.21,-43.22,-31.10,-51.36,-54.35,-55.03
2021/06/06 03:45:28+0000,-41.00,-44.23,-30.62,-50.34,-54.14,-55.34
2021/06/06 03:46:20+0000,-40.11,-43.03,-30.73,-52.30,-53.51,-54.68
2021/06/06 03:47:12+0000,-40.63,-44.02,-31.13,-50.88,-52.95,-54.47
2021/06/06 03:48:04+0000,-40.54,-44.56,-31.30,-52.03,-54.04,-53.97
2021/06/06 03:48:56+0000,-40.54,-42.48,-30.54,-50.62,-53.74,-54.14
2021/06/06 03:49:48+0000,-40.78,-44.53,-30.40,-50.87,-54.05,-54.81
2021/06/06 03:50:40+0000,-40.62,-45.08,-30.90,-50.72,-53.74,-54.63
2021/06/06 03:51:40+0000,-40.60,-44.01,-30.92,-51.61,-53.92,-55.19
2021/06/06 03:52:32+0000,-40.60,-44.30,-30.89,-49.81,-52.99,-55.01
2021/06/06 03:53:24+0000,-40.62,-45.16,-30.03,-50.24,-53.25,-55.10
2021/06/06 03:54:16+0000,-40.81,-42.54,-30.68,-50.28,-53.34,-55.09
2021/06/06 03:55:08+0000,-41.02,-44.58,-30.69,-50.18,-53.47,-55.62
2021/06/06 03:56:00+0000,-39.81,-43.71,-30.15,-48.11,-53.50,-55.68
2021/06/06 03:56:52+0000,-38.86,-44.41,-30.33,-50.94,-53.12,-55.18
2021/06/06 03:57:44+0000,-40.74,-43.20,-30.58,-50.15,-53.83,-54.60
2021/06/06 03:58:36+0000,-39.94,-42.87,-30.68,-52.17,-53.97,-53.91
2021/06/06 03:59:28+0000,-38.57,-44.41,-29.88,-47.27,-53.76,-54.80
2021/06/06 04:00:21+0000,-39.93,-44.56,-30.59,-52.71,-53.99,-55.31
2021/06/06 04:01:21+0000,-40.34,-46.17,-29.70,-51.37,-55.93,-55.89
2021/06/06 04:02:13+0000,-41.04,-44.31,-30.67,-51.15,-55.62,-55.51
2021/06/06 04:03:05+0000,-40.47,-45.86,-31.05,-51.57,-55.78,-56.09
2021/06/06 04:03:57+0000,-40.90,-44.85,-31.27,-47.37,-55.32,-56.28
2021/06/06 04:04:49+0000,-39.37,-44.48,-30.66,-53.21,-55.45,-56.33
2021/06/06 04:05:41+0000,-40.70,-45.25,-30.87,-50.61,-55.45,-56.15
2021/06/06 04:06:33+0000,-39.54,-47.00,-30.73,-53.10,-55.25,-56.13
2021/06/06 04:07:25+0000,-40.86,-46.02,-30.52,-50.28,-55.45,-55.12
2021/06/06 04:08:17+0000,-40.66,-45.29,-30.38,-52.19,-55.23,-54.74
2021/06/06 04:09:09+0000,-40.25,-47.15,-31.06,-50.68,-55.86,-56.00
2021/06/06 04:10:01+0000,-40.92,-46.67,-31.23,-45.79,-55.44,-56.06
2021/06/06 04:11:02+0000,-40.31,-47.30,-30.56,-48.52,-55.15,-56.33
2021/06/06 04:11:54+0000,-41.20,-47.11,-30.51,-50.11,-55.97,-56.61
2021/06/06 04:12:46+0000,-40.83,-46.33,-30.54,-51.25,-55.55,-56.37
2021/06/06 04:13:38+0000,-41.43,-45.84,-30.40,-51.15,-55.41,-55.68
2021/06/06 04:14:30+0000,-41.08,-47.73,-30.43,-49.41,-55.53,-55.95
2021/06/06 04:15:22+0000,-39.65,-47.79,-31.32,-47.96,-54.91,-56.26
2021/06/06 04:16:14+0000,-40.76,-46.77,-30.16,-51.96,-55.76,-55.62
2021/06/06 04:17:06+0000,-37.54,-48.55,-30.15,-52.45,-54.76,-56.23
2021/06/06 04:17:58+0000,-40.68,-46.22,-31.14,-49.74,-55.26,-55.11
2021/06/06 04:18:50+0000,-42.63,-47.06,-30.08,-52.49,-54.89,-56.05
2021/06/06 04:19:42+0000,-42.18,-45.85,-30.64,-52.54,-54.89,-56.44
2021/06/06 04:20:34+0000,-40.35,-48.07,-30.45,-52.93,-55.57,-55.68
2021/06/06 04:21:34+0000,-41.76,-46.23,-30.99,-52.90,-55.01,-53.63
2021/06/06 04:22:26+0000,-41.19,-44.37,-30.74,-49.71,-54.98,-54.32
2021/06/06 04:23:18+0000,-41.45,-41.45,-30.14,-52.40,-55.10,-56.13
2021/06/06 04:24:10+0000,-41.07,-43.33,-30.92,-51.53,-55.02,-55.43
2021/06/06 04:25:02+0000,-38.86,-44.78,-31.16,-49.90,-55.40,-55.72
2021/06/06 04:25:55+0000,-41.51,-44.11,-30.84,-49.62,-55.28,-55.90
2021/06/06 04:26:47+0000,-39.56,-42.28,-30.79,-50.23,-54.99,-56.10
2021/06/06 04:27:39+0000,-40.69,-44.14,-30.74,-49.30,-55.06,-56.66
2021/06/06 04:28:31+0000,-41.74,-48.43,-30.28,-49.50,-54.83,-56.38
2021/06/06 04:29:23+0000,-40.00,-49.38,-31.08,-49.36,-55.17,-54.89
2021/06/06 04:30:15+0000,-39.73,-45.62,-30.95,-50.28,-55.22,-55.16
2021/06/06 04:31:15+0000,-41.70,-46.79,-30.56,-50.73,-55.44,-55.74
2021/06/06 04:32:07+0000,-41.96,-48.85,-30.10,-50.57,-55.88,-56.74
2021/06/06 04:32:59+0000,-42.63,-46.66,-30.47,-49.59,-55.85,-56.16
2021/06/06 04:33:51+0000,-41.82,-48.61,-30.86,-50.30,-55.85,-56.61
2021/06/06 04:34:43+0000,-40.00,-46.62,-30.98,-50.99,-54.39,-56.18
2021/06/06 04:35:35+0000,-41.79,-47.31,-30.41,-52.42,-54.77,-56.54
2021/06/06 04:36:27+0000,-39.57,-48.24,-30.79,-51.84,-54.85,-56.06
2021/06/06 04:37:19+0000,-39.03,-47.25,-30.46,-52.26,-54.41,-56.14
2021/06/06 04:38:11+0000,-40.71,-47.40,-30.58,-50.74,-55.55,-56.48
2021/06/06 04:39:03+0000,-40.37,-45.96,-30.51,-52.41,-54.99,-56.02
2021/06/06 04:39:55+0000,-41.06,-46.75,-30.38,-51.82,-55.50,-56.14
2021/06/06 04:40:48+0000,-41.06,-46.19,-30.94,-51.03,-54.73,-55.93
2021/06/06 04:41:47+0000,-41.23,-47.29,-30.86,-50.51,-55.29,-54.83
2021/06/06 04:42:39+0000,-41.11,-44.97,-30.64,-51.65,-54.35,-55.35
2021/06/06 04:43:31+0000,-41.13,-47.13,-31.09,-51.76,-55.17,-56.62
2021/06/06 04:44:24+0000,-41.08,-48.05,-30.36,-52.03,-55.33,-56.76
2021/06/06 04:45:16+0000,-42.16,-45.71,-30.50,-51.99,-54.84,-56.68
2021/06/06 04:46:08+0000,-42.12,-49.02,-31.37,-51.13,-55.74,-56.60
2021/06/06 04:47:00+0000,-41.30,-46.30,-31.21,-52.34,-54.92,-56.45
2021/06/06 04:47:52+0000,-40.76,-49.07,-30.35,-52.61,-55.02,-56.29
2021/06/06 04:48:44+0000,-40.51,-44.90,-31.19,-51.55,-55.52,-56.68
2021/06/06 04:49:36+0000,-41.01,-48.41,-31.19,-52.97,-55.40,-56.91
2021/06/06 04:50:28+0000,-41.72,-46.95,-30.75,-51.97,-55.57,-56.68
2021/06/06 04:51:28+0000,-41.61,-48.20,-31.20,-53.13,-55.17,-56.47
2021/06/06 04:52:20+0000,-41.94,-45.56,-30.73,-53.49,-55.29,-56.89
2021/06/06 04:53:12+0000,-41.41,-45.73,-30.37,-52.11,-54.65,-56.58
2021/06/06 04:54:04+0000,-41.80,-47.75,-31.04,-52.87,-55.02,-55.09